Regional Weather Roundup
Issued by NWS Upton, NY

Current Version | Previous Version | Text Only | Print | Product List | Glossary On
Versions: 1 2 3 4 5 6 7 8 9 10 11 12 13 14 15 16 17 18 19 20 21 22 23 24 25 26 27 28 29 30 31 32 33 34 35 36 37 38 39 40 41 42 43 44 45 46 47 48 49 50
000
ASUS41 KOKX 252009
RWROKX

REGIONAL WEATHER ROUNDUP
NATIONAL WEATHER SERVICE NEW YORK NY
400 PM EDT TUE APR 25 2017

NOTE: "FAIR" INDICATES FEW OR NO CLOUDS BELOW 12,000 FEET WITH NO
SIGNIFICANT WEATHER AND/OR OBSTRUCTIONS TO VISIBILITY.

NYZ071-072-176-178-NJZ106-104-252100-
NEW YORK CITY METRO AREA

CITY           SKY/WX    TMP DP  RH WIND       PRES   REMARKS
Central Park   LGT RAIN  53  52  96 E14G33    30.00F
Wall St Helipt LGT RAIN  55  52  89 NE22G29   29.96F
Bronx Bot Gard   N/A     52  50  93 N17       29.99F
LaGuardia APRT LGT RAIN  55  51  86 NE30G37   29.97F
Kennedy INTL   LGT RAIN  57  55  93 NE18G26   29.96F FOG
Breezy Point     N/A     54 N/A N/A NE15G24     N/A
Newark/Liberty LGT RAIN  55  53  93 NE17G26   29.96F
Teterboro      LGT RAIN  56  53  90 E17G24    29.96F FOG
$$

NYZ177-179-078>081-252100-
LONG ISLAND NEW YORK

CITY           SKY/WX    TMP DP  RH WIND       PRES   REMARKS
Jones Beach      N/A     54 N/A N/A NE24G30     N/A
Matinecock PT  NOT AVBL
Farmingdale    CLOUDY    54  52  93 NE14G23   29.98F
MacArthur/ISP  LGT RAIN  54  53  97 E18G28    29.98F FOG
Shirley        LGT RAIN  52  52 100 VRB7      30.01F
Mt Sinai Harb    N/A    N/A N/A N/A E14G20      N/A
Westhampton    LGT RAIN  53  51  93 NE15      30.02F
East Hampton   LGT RAIN  50  49  96 NE10G18   30.04F
Montauk          N/A     50  49  96 NE13G24   30.07
$$

NYZ052-065-067-252100-
HUDSON VALLEY

CITY           SKY/WX    TMP DP  RH WIND       PRES   REMARKS
White Plains   LGT RAIN  55  53  93 E17G24    29.99F FOG
Larchmont Harb   N/A     50 N/A N/A NE23        N/A
Croton O-T Hud   N/A     57 N/A N/A E10G18      N/A
Newburgh       DRIZZLE   54  54 100 NE9       30.04F FOG
Montgomery     LGT RAIN  53  51  93 NE13      30.01F
Poughkeepsie   CLOUDY    56  52  86 NE10      30.03F
Albany         LGT RAIN  54  48  80 N6        30.11F
$$

NJZ001-105-106-008-010-013-015-019>022-104-252100-
NEW JERSEY

CITY           SKY/WX    TMP DP  RH WIND       PRES   REMARKS
Newark/Liberty LGT RAIN  55  53  93 NE17G26   29.96F
Teterboro      LGT RAIN  56  53  90 E17G24    29.96F FOG
Caldwell       LGT RAIN  56  54  93 E13G22    29.97F FOG
Somerville     CLOUDY    58  54  86 MISG      29.91F
Linden         DRIZZLE   56  53  89 E17G23    29.94F
Sussex         CLOUDY    53  51  93 NE14G21   29.99F
Andover          N/A     54  52  93 VRB5      29.96F
Trenton        HVY RAIN  56  55  97 NE14G23   29.88F FOG
Millville      RAIN      58  58 100 NE12G20   29.78F VSB 1
Atlantic City  LGT RAIN  56  54  93 NE21G32   29.79F FOG
Wrightstown    LGT RAIN  53  52  95 NE21G26   29.84F FOG
Toms River     HVY RAIN  51  51 100 NE17G24   29.88F FOG
Belmar         RAIN      51  50  96 NE20G32   29.90F FOG
$$

PAZ047>061-062-071-252100-
EASTERN PENNSYLVANIA

CITY           SKY/WX    TMP DP  RH WIND       PRES   REMARKS
Philadelphia   LGT RAIN  57  54  89 NE20G28   29.84F FOG
Allentown      LGT RAIN  56  52  86 NE14      29.91F FOG
Scranton       LGT RAIN  56  50  80 NE9G22    29.95F
$$

CTZ002-004>006-009-010-012-RIZ004-006-007-MAZ004-011-015-252100-
SOUTHERN NEW ENGLAND
 IN CT

CITY           SKY/WX    TMP DP  RH WIND       PRES   REMARKS
Bradley INTL   RAIN      52  50  93 NE14      30.13S FOG
Hartford       LGT RAIN  53  50  89 NE12      30.10F
Danbury        LGT RAIN  53  52  96 E12       30.04F
Wtrbury/Oxford DRIZZLE   52  46  82 NE13G23   30.06F FOG
Bridgeport     LGT RAIN  57  52  83 E15       30.04F
Meriden        CLOUDY    55  51  86 NE9       30.07F
New Haven      LGT RAIN  55  52  89 NE10      30.04F
Chester        DRIZZLE   52  52 100 E12G22    30.07F
Groton         LGT RAIN  54  50  86 E15       30.08S
Wilimantic     LGT RAIN  52  48  86 NE12      30.12F

 IN RI

CITY           SKY/WX    TMP DP  RH WIND       PRES   REMARKS
Providence     LGT RAIN  50  49  96 NE15      30.15F
Block Island   LGT RAIN  49  49 100 NE15G21   30.09F FOG
Westerly       LGT RAIN  52  50  93 NE10G21   30.10F
 IN MA

CITY           SKY/WX    TMP DP  RH WIND       PRES   REMARKS
Boston         RAIN      46  45  96 NE16      30.23S FOG
Worcester      LGT RAIN  44  42  93 NE14G22   30.17F FOG
Westfield      LGT RAIN  50  49  96 NE8       30.15S FOG
Provincetown   LGT RAIN  48  47  96 E14G22    30.18F
Nantucket      CLOUDY    51  48  89 E20G30    30.11F FOG
$$

ANZ330-335-338-340-345-350-353-355-252100-
COASTAL MARINE OBSERVATIONS


STATION/POSITION TIME  SKY/WX   TEMP    WIND        PRES    VSBY  WAVE
                                AIR SEA DIR/SP/G                  HT/PER
                 (UTC)          (F)     (DEG/KT/KT) (MB)    (MI)  (FT/S)
NY HARB ENTRANCE 1850            50 48   60/ 27/ 33 1013.9          7/ 6
20 S FIRE ISLAND 1950            48 48   60/ 25/ 29 1012.6          8/ 7
GREAT SOUTH BAY  1930            53 55   60/ 21/ 25   N/A
23 SSW MONTAUK P 1850            48 46              1017.3          7/ 7
15 E BARNEGAT LI 1930               50                N/A          10/10
HUDSON CANYON    1850            53 47   90/ 19/ 23 1012.4          9/ 9
KINGS POINT      1948            53 48   90/ 12/ 26 1015.0
EXECUTION ROCKS  NOT AVBL
CENTRAL LI SOUND 1930            49      60/ 14/ 16   N/A           2/ 4
EASTERN LI SOUND NOT AVBL
ROBBINS REEF     1948            54      50/ 25/ 29 1014.0
$$


>>>>>>>>>>>>>>>>>>>>>>>>>>>> KEY <<<<<<<<<<<<<<<<<<<<<<<<<<<
>                                                          <
>     SKY/WX - Sky Condition/Present Weather               <
>     TMP    - Temperature in Fahrenheit                   <
>     DP     - Dew Point in Fahrenheit                     <
>     RH     - Relative Humidity in Percent                <
>     WIND   - Direction (from) and Speed in MPH           <
>     PRES   - Mean Sea Level Pressure (inches of Hg)      <
>     WCI    - Wind Chill Index                            <
>     VSB    - VISIBILITY IN MILES                         <
>     HX     - HEAT INDEX                                  <
>     TC     - TEMPERATURE IN CELSIUS                      <
>     VRB    - VARIABLE WIND DIRECTION                     <
>                                                          <
>>>>>>>>>>>>>>>>>>>>>>>>>>>> KEY <<<<<<<<<<<<<<<<<<<<<<<<<<<



USA.gov is the U.S. government's official web portal to all federal, state and local government web resources and services.